Bad Axe, MI

5:00 AM EST on November 24, 2017 (GMT -0500)
Huron County Memorial

Weather History for KBAX - December, 2012

Change the Weather History Date:

Wednesday, December 5, 2012

  Actual Average (KP58) Record (KP58)
Temperature  
Mean Temperature 30 °F -  
Max Temperature 37 °F 36 °F 66 °F (2001)
Min Temperature 23 °F 27 °F 16 °F (2002)
Degree Days  
Heating Degree Days 35    
Moisture  
Dew Point 21 °F    
Average Humidity 70    
Maximum Humidity 86    
Minimum Humidity 58    
Precipitation  
Precipitation 0.00 in - - ()
Sea Level Pressure  
Sea Level Pressure 30.32 in    
Wind  
Wind Speed 10 mph (NW)    
Max Wind Speed 17 mph    
Max Gust Speed 24 mph    
Visibility 10 miles    
Events      
Averages and records for this station are not official NWS values.
T = Trace of Precipitation, MM = Missing Value Source: NWS Daily Summary

Daily Weather History Graph

Daily Weather History Graph

Search for Another Location

Airport or City:

Trip Planner

Search our weather history database for the weather conditions in past years. The results will help you decide how hot, cold, wet, or windy it might be!

Date:

Astronomy

Dec. 05, 2012 Rise Set
Actual Time 7:50 AM EST 4:54 PM EST
Civil Twilight 7:18 AM EST 5:27 PM EST
Nautical Twilight 6:42 AM EST 6:03 PM EST
Astronomical Twilight 6:07 AM EST 6:38 PM EST
Moon 11:53 PM EST (12/5) 12:04 PM EST (12/5)
Length of Visible Light 10h 09m
Length of Day
9h 04m
Waning Gibbous, 60% of the Moon is Illuminated
Dec 5
Waning Gibbous
Dec 6
Last Quarter
Dec 13
New
Dec 20
First Quarter
Dec 28
Full

Hourly Weather History & Observations

Time (EST) Temp. Windchill Dew Point Humidity Pressure Visibility Wind Dir Wind Speed Gust Speed Precip Events Conditions
12:15 AM 37.4 °F 31.4 °F 32.2 °F 81% 30.10 in 10.0 mi North 8.1 mph - N/A   Overcast
12:34 AM 36.5 °F 28.7 °F 30.4 °F 78% 30.11 in 10.0 mi NW 11.5 mph - N/A   Overcast
12:54 AM 35.2 °F 26.2 °F 28.0 °F 75% 30.12 in 10.0 mi NW 13.8 mph - N/A   Overcast
1:15 AM 34.5 °F 24.5 °F 25.3 °F 69% 30.13 in 10.0 mi NW 16.1 mph 21.9 mph N/A   Mostly Cloudy
1:34 AM 33.6 °F 22.9 °F 24.4 °F 69% 30.14 in 10.0 mi NW 17.3 mph 21.9 mph N/A   Mostly Cloudy
1:54 AM 32.9 °F 24.1 °F 24.1 °F 70% 30.15 in 10.0 mi NNW 11.5 mph 17.3 mph N/A   Mostly Cloudy
2:15 AM 32.9 °F 22.8 °F 23.0 °F 67% 30.17 in 10.0 mi NW 15.0 mph 21.9 mph N/A   Overcast
2:54 AM 31.6 °F 21.2 °F 20.7 °F 64% 30.19 in 10.0 mi NNW 15.0 mph - N/A   Overcast
3:15 AM 30.7 °F 20.0 °F 18.9 °F 61% 30.20 in 10.0 mi NNW 15.0 mph 20.7 mph N/A   Overcast
3:34 AM 29.8 °F 21.5 °F 18.9 °F 64% 30.21 in 10.0 mi NW 9.2 mph - N/A   Scattered Clouds
3:54 AM 29.3 °F 22.3 °F 19.4 °F 67% 30.21 in 10.0 mi WNW 6.9 mph - N/A   Clear
4:15 AM 29.3 °F 22.3 °F 19.4 °F 67% 30.21 in 10.0 mi WNW 6.9 mph - N/A   Mostly Cloudy
4:34 AM 29.3 °F 20.2 °F 19.6 °F 67% 30.22 in 10.0 mi WNW 10.4 mph - N/A   Mostly Cloudy
4:55 AM 30.2 °F 19.8 °F 19.4 °F 64% 30.23 in 10.0 mi WNW 13.8 mph 18.4 mph N/A   Overcast
5:15 AM 29.7 °F 20.1 °F 18.5 °F 63% 30.23 in 10.0 mi WNW 11.5 mph 16.1 mph N/A   Mostly Cloudy
5:34 AM 29.3 °F 20.2 °F 18.3 °F 64% 30.25 in 10.0 mi WNW 10.4 mph 17.3 mph N/A   Scattered Clouds
5:55 AM 29.3 °F 20.2 °F 19.2 °F 66% 30.25 in 10.0 mi WNW 10.4 mph - N/A   Mostly Cloudy
6:15 AM 28.9 °F 20.4 °F 19.4 °F 68% 30.26 in 10.0 mi WNW 9.2 mph - N/A   Mostly Cloudy
6:34 AM 29.3 °F 20.2 °F 19.4 °F 67% 30.27 in 10.0 mi WNW 10.4 mph 16.1 mph N/A   Clear
6:55 AM 29.3 °F 20.8 °F 19.4 °F 67% 30.27 in 10.0 mi WNW 9.2 mph - N/A   Clear
7:15 AM 29.1 °F 20.0 °F 19.8 °F 68% 30.28 in 10.0 mi WNW 10.4 mph - N/A   Clear
7:34 AM 29.3 °F 22.3 °F 20.3 °F 69% 30.30 in 10.0 mi WNW 6.9 mph - N/A   Scattered Clouds
7:55 AM 29.7 °F 20.1 °F 20.7 °F 69% 30.30 in 10.0 mi NW 11.5 mph - N/A   Scattered Clouds
9:34 AM 31.8 °F 21.8 °F 23.0 °F 70% 30.34 in 10.0 mi NW 13.8 mph 20.7 mph N/A   Mostly Cloudy
9:55 AM 32.0 °F 21.2 °F 23.2 °F 70% 30.35 in 10.0 mi NW 16.1 mph 19.6 mph N/A   Overcast
10:14 AM 32.0 °F 21.2 °F 21.2 °F 64% 30.35 in 10.0 mi NNW 16.1 mph 24.2 mph N/A   Overcast
10:34 AM 31.6 °F 21.2 °F 21.9 °F 67% 30.36 in 10.0 mi NNW 15.0 mph 21.9 mph N/A   Overcast
10:55 AM 32.0 °F 21.2 °F 20.3 °F 62% 30.36 in 10.0 mi NNW 16.1 mph 23.0 mph N/A   Mostly Cloudy
11:14 AM 32.0 °F 21.2 °F 19.2 °F 59% 30.36 in 10.0 mi NNW 16.1 mph 21.9 mph N/A   Scattered Clouds
11:35 AM 32.0 °F 22.5 °F 18.7 °F 58% 30.37 in 10.0 mi NNW 12.7 mph 24.2 mph N/A   Mostly Cloudy
11:55 AM 31.8 °F 21.4 °F 18.7 °F 58% 30.37 in 10.0 mi NNW 15.0 mph 21.9 mph N/A   Overcast
12:14 PM 32.4 °F 23.0 °F 19.4 °F 59% 30.37 in 10.0 mi NNW 12.7 mph - N/A   Mostly Cloudy
12:35 PM 32.0 °F 22.1 °F 19.2 °F 59% 30.37 in 10.0 mi North 13.8 mph - N/A   Mostly Cloudy
12:55 PM 32.5 °F 23.2 °F 19.4 °F 58% 30.38 in 10.0 mi NW 12.7 mph 16.1 mph N/A   Overcast
1:14 PM 32.4 °F 25.3 °F 19.0 °F 58% 30.38 in 10.0 mi NNW 8.1 mph - N/A   Overcast
1:35 PM 32.0 °F 24.2 °F 19.8 °F 61% 30.38 in 10.0 mi NNW 9.2 mph - N/A   Overcast
1:55 PM 32.2 °F 22.7 °F 19.8 °F 60% 30.38 in 10.0 mi NW 12.7 mph 16.1 mph N/A   Overcast
2:14 PM 32.2 °F 25.0 °F 21.0 °F 63% 30.38 in 10.0 mi North 8.1 mph - N/A   Overcast
2:35 PM 32.0 °F 23.0 °F 21.2 °F 64% 30.38 in 10.0 mi North 11.5 mph - N/A   Overcast
2:55 PM 31.1 °F 22.4 °F 20.3 °F 64% 30.38 in 10.0 mi North 10.4 mph - N/A   Mostly Cloudy
3:14 PM 31.5 °F 22.3 °F 19.8 °F 62% 30.38 in 10.0 mi North 11.5 mph - N/A   Scattered Clouds
3:35 PM 31.1 °F 23.7 °F 19.8 °F 63% 30.38 in 10.0 mi North 8.1 mph - N/A   Clear
3:55 PM 29.5 °F 21.1 °F 20.1 °F 68% 30.38 in 10.0 mi North 9.2 mph - N/A   Scattered Clouds
4:14 PM 30.4 °F 24.5 °F 20.1 °F 66% 30.38 in 10.0 mi North 5.8 mph - N/A   Clear
4:35 PM 29.8 °F 23.0 °F 20.3 °F 68% 30.40 in 10.0 mi North 6.9 mph - N/A   Mostly Cloudy
4:54 PM 28.9 °F 25.2 °F 20.3 °F 70% 30.40 in 10.0 mi NNE 3.5 mph - N/A   Mostly Cloudy
5:15 PM 27.7 °F 23.8 °F 20.3 °F 74% 30.39 in 10.0 mi North 3.5 mph - N/A   Scattered Clouds
5:35 PM 27.9 °F - 20.1 °F 73% 30.39 in 10.0 mi Calm Calm - N/A   Clear
5:55 PM 25.9 °F - 18.7 °F 74% 30.38 in 10.0 mi Calm Calm - N/A   Clear
6:15 PM 25.0 °F - 19.2 °F 79% 30.38 in 10.0 mi Calm Calm - N/A   Clear
6:35 PM 24.3 °F - 19.6 °F 82% 30.38 in 10.0 mi Calm Calm - N/A   Scattered Clouds
6:55 PM 23.9 °F - 19.0 °F 82% 30.39 in 10.0 mi Calm Calm - N/A   Scattered Clouds
7:15 PM 24.8 °F 20.5 °F 20.8 °F 85% 30.38 in 10.0 mi SSW 3.5 mph - N/A   Mostly Cloudy
7:35 PM 26.2 °F - 22.1 °F 84% 30.38 in 10.0 mi Calm Calm - N/A   Overcast
7:55 PM 26.4 °F - 22.8 °F 86% 30.38 in 10.0 mi Calm Calm - N/A   Overcast
8:15 PM 26.6 °F - 23.0 °F 86% 30.38 in 10.0 mi Calm Calm - N/A   Overcast
8:34 PM 27.5 °F - 22.8 °F 83% 30.38 in 10.0 mi Calm Calm - N/A   Overcast
8:55 PM 27.1 °F - 23.0 °F 84% 30.37 in 10.0 mi Calm Calm - N/A   Overcast
9:15 PM 28.2 °F - 23.0 °F 81% 30.38 in 10.0 mi Calm Calm - N/A   Overcast
9:34 PM 29.3 °F - 22.6 °F 76% 30.38 in 10.0 mi Calm Calm - N/A   Overcast
9:55 PM 29.3 °F 24.3 °F 22.8 °F 77% 30.39 in 10.0 mi SSW 4.6 mph - N/A   Overcast
10:15 PM 29.1 °F 25.4 °F 22.8 °F 77% 30.39 in 10.0 mi South 3.5 mph - N/A   Overcast
10:35 PM 28.9 °F 22.8 °F 22.6 °F 77% 30.38 in 10.0 mi South 5.8 mph - N/A   Overcast
10:54 PM 28.2 °F - 21.4 °F 76% 30.38 in 10.0 mi Calm Calm - N/A   Mostly Cloudy
11:14 PM 27.0 °F - 21.0 °F 78% 30.37 in 10.0 mi Calm Calm - N/A   Clear
11:35 PM 25.3 °F - 19.2 °F 78% 30.37 in 10.0 mi Calm Calm - N/A   Clear
11:54 PM 24.8 °F - 20.1 °F 82% 30.37 in 10.0 mi Calm Calm - N/A   Clear